AUA47E LOWW-GCLP

Flight info

Callsign AUA47E
Flight time N/A
Altitude 35000
Route OSPEN DCT ABRUK DCT SETAL DCT DETSA DCT GEKBA DCT VAMTU DCT KOLON DCT GANGU DCT PADKO DCT DIVKO DCT NILDU DCT NENDA DCT BCN DCT RODRA DCT PEXOT DCT EBROX DCT LOTOS DCT TORDU DCT DIKUT DCT SOPET DCT VLC DCT SERRA DCT ASTRO DCT POBOS DCT XEBAR DCT YES DCT MAMIS DCT BAZAS DCT VIBAS DCT MGA N851 VJF L82 RUNAX UL82 IBALU UN857 TERTO
Aircraft A320/M-SDE3FGHIRWY/LB1

Departure

Time 2026-04-30 09:34
Airport Vienna International Airport (LOWW)

Arrival

Time N/A
Airport Gran Canaria Airport (GCLP)
Time Latitude Longitude Altitude Speed Heading
2026-04-30 09:24 48.11845 16.56931 609 ft 0 kts 206°
2026-04-30 09:28 48.11859 16.56942 627 ft 4 kts 202°
2026-04-30 09:28 48.11894 16.56956 625 ft 4 kts 180°
2026-04-30 09:28 48.11910 16.56953 621 ft 4 kts 151°
2026-04-30 09:28 48.11921 16.56940 620 ft 0 kts 116°
2026-04-30 09:30 48.11917 16.56953 620 ft 4 kts 116°
2026-04-30 09:30 48.11895 16.57020 614 ft 10 kts 116°
2026-04-30 09:31 48.11857 16.57142 614 ft 16 kts 108°
2026-04-30 09:31 48.11822 16.57311 614 ft 18 kts 125°
2026-04-30 09:31 48.11718 16.57384 622 ft 16 kts 164°
2026-04-30 09:31 48.11613 16.57429 620 ft 17 kts 164°
2026-04-30 09:32 48.11480 16.57451 610 ft 22 kts 199°
2026-04-30 09:32 48.11333 16.57346 616 ft 23 kts 206°
2026-04-30 09:32 48.11215 16.57291 623 ft 15 kts 160°
2026-04-30 09:32 48.11166 16.57409 622 ft 13 kts 116°
2026-04-30 09:33 48.11128 16.57526 610 ft 12 kts 116°
2026-04-30 09:33 48.11091 16.57628 617 ft 12 kts 133°
2026-04-30 09:33 48.11004 16.57620 609 ft 15 kts 207°
2026-04-30 09:33 48.10929 16.57504 609 ft 18 kts 275°
2026-04-30 09:34 48.11028 16.57188 613 ft 64 kts 296°
2026-04-30 09:34 48.11319 16.56297 616 ft 125 kts 296°
2026-04-30 09:34 48.11772 16.54898 623 ft 172 kts 302°
2026-04-30 09:34 48.12264 16.53265 1203 ft 170 kts 296°
2026-04-30 09:35 48.12300 16.51496 1925 ft 180 kts 248°
2026-04-30 09:35 48.11412 16.50189 2527 ft 185 kts 206°
2026-04-30 09:35 48.10263 16.49320 3047 ft 185 kts 210°
2026-04-30 09:35 48.09157 16.48375 3590 ft 186 kts 213°
2026-04-30 09:36 48.08030 16.47357 3908 ft 198 kts 214°
2026-04-30 09:36 48.06878 16.46040 4061 ft 221 kts 222°
2026-04-30 09:36 48.05643 16.44474 4297 ft 244 kts 222°
2026-04-30 09:36 48.04346 16.42656 4576 ft 267 kts 227°
2026-04-30 09:37 48.03015 16.40548 4900 ft 291 kts 229°
2026-04-30 09:37 48.01600 16.38224 5221 ft 314 kts 229°
2026-04-30 09:37 48.00114 16.35754 5824 ft 323 kts 229°
2026-04-30 09:37 47.98599 16.33242 6548 ft 328 kts 229°
2026-04-30 09:38 47.97053 16.30696 7289 ft 333 kts 228°
2026-04-30 09:38 47.95481 16.28124 8000 ft 337 kts 228°
2026-04-30 09:38 47.93889 16.25536 8722 ft 341 kts 228°
2026-04-30 09:38 47.92277 16.22922 9435 ft 344 kts 228°
2026-04-30 09:39 47.90643 16.20275 10115 ft 350 kts 228°
2026-04-30 09:39 47.88985 16.17594 10796 ft 353 kts 228°
2026-04-30 09:39 47.87316 16.14894 11470 ft 356 kts 229°
2026-04-30 09:39 47.85634 16.12167 12112 ft 359 kts 229°
2026-04-30 09:40 47.83932 16.09402 12778 ft 363 kts 229°
2026-04-30 09:40 47.82242 16.06655 13420 ft 367 kts 229°
2026-04-30 09:40 47.80508 16.03848 14063 ft 370 kts 229°
2026-04-30 09:40 47.78754 16.01022 14656 ft 373 kts 229°
2026-04-30 09:41 47.76982 15.98171 15198 ft 377 kts 229°
2026-04-30 09:41 47.75193 15.95295 15746 ft 380 kts 229°
2026-04-30 09:41 47.73390 15.92398 16288 ft 384 kts 229°
2026-04-30 09:41 47.71568 15.89472 16823 ft 387 kts 229°
2026-04-30 09:42 47.69731 15.86526 17347 ft 391 kts 229°
2026-04-30 09:42 47.67875 15.83556 17857 ft 394 kts 229°
2026-04-30 09:42 47.66000 15.80559 18406 ft 398 kts 229°
2026-04-30 09:42 47.64113 15.77542 18887 ft 401 kts 229°
2026-04-30 09:43 47.62209 15.74496 19338 ft 404 kts 229°
2026-04-30 09:43 47.60288 15.71427 19784 ft 408 kts 229°
2026-04-30 09:43 47.58348 15.68336 20236 ft 411 kts 229°
2026-04-30 09:43 47.56396 15.65229 20695 ft 414 kts 229°
2026-04-30 09:44 47.54427 15.62098 21144 ft 417 kts 229°
2026-04-30 09:44 47.52443 15.58944 21596 ft 420 kts 229°
2026-04-30 09:44 47.50485 15.55721 22036 ft 422 kts 234°
2026-04-30 09:44 47.48853 15.52118 22476 ft 422 kts 244°
2026-04-30 09:45 47.47654 15.48172 22914 ft 421 kts 254°
2026-04-30 09:45 47.46830 15.44013 23333 ft 422 kts 258°
2026-04-30 09:45 47.46032 15.39821 23770 ft 425 kts 257°
2026-04-30 09:45 47.45216 15.35608 24134 ft 428 kts 257°
2026-04-30 09:46 47.44388 15.31374 24462 ft 430 kts 257°
2026-04-30 09:46 47.43550 15.27116 24802 ft 433 kts 257°
2026-04-30 09:46 47.42706 15.22843 25120 ft 435 kts 257°
2026-04-30 09:46 47.41856 15.18548 25455 ft 437 kts 257°
2026-04-30 09:47 47.41004 15.14246 25811 ft 437 kts 257°
2026-04-30 09:47 47.40161 15.09985 26059 ft 439 kts 257°
2026-04-30 09:47 47.39301 15.05644 26299 ft 442 kts 257°
2026-04-30 09:47 47.38434 15.01275 26583 ft 445 kts 257°
2026-04-30 09:48 47.37563 14.96885 26878 ft 447 kts 257°
2026-04-30 09:48 47.36689 14.92477 27173 ft 449 kts 257°
2026-04-30 09:48 47.35807 14.88040 27466 ft 451 kts 257°
2026-04-30 09:48 47.34918 14.83587 27757 ft 454 kts 257°
2026-04-30 09:49 47.34021 14.79121 28032 ft 456 kts 257°
2026-04-30 09:49 47.33114 14.74635 28302 ft 458 kts 257°
2026-04-30 09:49 47.32201 14.70130 28561 ft 459 kts 257°
2026-04-30 09:49 47.31285 14.65609 28809 ft 461 kts 257°
2026-04-30 09:50 47.30366 14.61067 28947 ft 465 kts 257°
2026-04-30 09:50 47.29435 14.56473 29136 ft 469 kts 257°
2026-04-30 09:50 47.28500 14.51864 29397 ft 469 kts 257°
2026-04-30 09:50 47.27560 14.47256 29642 ft 470 kts 256°
2026-04-30 09:51 47.26614 14.42643 29881 ft 471 kts 256°
2026-04-30 09:51 47.25665 14.38020 30081 ft 473 kts 256°
2026-04-30 09:51 47.24707 14.33365 30290 ft 475 kts 256°
2026-04-30 09:51 47.23747 14.28708 30489 ft 475 kts 256°
2026-04-30 09:52 47.22788 14.24059 30759 ft 475 kts 256°
2026-04-30 09:52 47.21826 14.19404 31008 ft 474 kts 256°
2026-04-30 09:52 47.20864 14.14764 31194 ft 475 kts 256°
2026-04-30 09:52 47.19897 14.10109 31338 ft 477 kts 256°
2026-04-30 09:53 47.18926 14.05451 31532 ft 477 kts 256°
2026-04-30 09:53 47.17951 14.00795 31722 ft 476 kts 256°
2026-04-30 09:53 47.16974 13.96142 31963 ft 476 kts 256°
2026-04-30 09:53 47.16012 13.91561 32226 ft 475 kts 256°
2026-04-30 09:54 47.15041 13.86936 32535 ft 472 kts 256°
2026-04-30 09:54 47.14073 13.82338 32845 ft 470 kts 256°
2026-04-30 09:54 47.13105 13.77754 33101 ft 469 kts 256°
2026-04-30 09:54 47.12136 13.73180 33281 ft 469 kts 256°
2026-04-30 09:55 47.10208 13.64150 33316 ft 461 kts 256°
2026-04-30 09:55 47.08289 13.55179 33303 ft 460 kts 256°
2026-04-30 09:56 47.06368 13.46216 33304 ft 461 kts 256°
2026-04-30 09:56 47.04437 13.37250 33291 ft 461 kts 256°
2026-04-30 09:57 47.02500 13.28287 33285 ft 461 kts 256°
2026-04-30 09:57 47.00561 13.19344 33255 ft 460 kts 256°
2026-04-30 09:58 46.98613 13.10409 33262 ft 461 kts 256°
2026-04-30 09:58 46.96653 13.01479 33267 ft 461 kts 256°
2026-04-30 09:59 46.92714 12.83637 33253 ft 461 kts 256°
2026-04-30 10:00 46.89756 12.70319 33221 ft 461 kts 256°
2026-04-30 10:01 46.86745 12.56900 33272 ft 461 kts 255°
2026-04-30 10:02 46.83763 12.43621 33301 ft 460 kts 255°
2026-04-30 10:02 46.81757 12.34753 33318 ft 459 kts 255°
2026-04-30 10:03 46.79178 12.26204 33292 ft 465 kts 239°
2026-04-30 10:03 46.75315 12.18600 33224 ft 467 kts 234°
2026-04-30 10:04 46.71384 12.11072 33234 ft 467 kts 235°
2026-04-30 10:04 46.67458 12.03546 33246 ft 466 kts 235°
2026-04-30 10:05 46.63531 11.96046 33247 ft 465 kts 235°
2026-04-30 10:05 46.59606 11.88570 33249 ft 465 kts 235°
2026-04-30 10:06 46.55673 11.81103 33237 ft 465 kts 235°
2026-04-30 10:06 46.51771 11.73716 33256 ft 464 kts 235°
2026-04-30 10:07 46.47846 11.66301 33257 ft 463 kts 235°
2026-04-30 10:07 46.43921 11.58909 33253 ft 462 kts 234°
2026-04-30 10:08 46.39995 11.51527 33255 ft 462 kts 234°
2026-04-30 10:08 46.36069 11.44163 33266 ft 461 kts 234°
2026-04-30 10:09 46.32153 11.36852 33277 ft 459 kts 234°
2026-04-30 10:09 46.28240 11.29556 33277 ft 458 kts 234°
2026-04-30 10:10 46.24331 11.22296 33258 ft 457 kts 234°
2026-04-30 10:10 46.20428 11.15044 33259 ft 457 kts 234°
2026-04-30 10:11 46.16538 11.07849 33258 ft 457 kts 234°
2026-04-30 10:11 46.12616 11.00621 33257 ft 458 kts 234°
2026-04-30 10:12 46.08687 10.93399 33269 ft 458 kts 234°
2026-04-30 10:12 46.04758 10.86185 33260 ft 458 kts 234°
2026-04-30 10:13 46.00829 10.78993 33294 ft 456 kts 234°
2026-04-30 10:13 45.96909 10.71842 33270 ft 454 kts 234°
2026-04-30 10:14 45.93001 10.64714 33283 ft 454 kts 234°
2026-04-30 10:14 45.87134 10.54070 33296 ft 453 kts 234°
2026-04-30 10:15 45.83894 10.48195 33315 ft 451 kts 234°
2026-04-30 10:15 45.80004 10.41163 33320 ft 449 kts 234°
2026-04-30 10:16 45.76095 10.34117 33323 ft 448 kts 234°
2026-04-30 10:17 45.70273 10.23656 33307 ft 448 kts 234°
2026-04-30 10:17 45.64485 10.13307 33311 ft 445 kts 234°
2026-04-30 10:18 45.60623 10.06431 33323 ft 443 kts 234°
2026-04-30 10:19 45.54843 9.96157 33331 ft 442 kts 234°
2026-04-30 10:19 45.50993 9.89331 33330 ft 441 kts 234°
2026-04-30 10:20 45.47157 9.82538 33340 ft 439 kts 234°
2026-04-30 10:20 45.41415 9.72405 33229 ft 438 kts 234°
2026-04-30 10:21 45.37588 9.65671 33238 ft 437 kts 234°
2026-04-30 10:21 45.33762 9.58960 33252 ft 436 kts 234°
2026-04-30 10:22 45.29964 9.52316 33267 ft 435 kts 234°
2026-04-30 10:22 45.26151 9.45657 33275 ft 434 kts 234°
2026-04-30 10:23 45.22334 9.39009 33285 ft 434 kts 234°
2026-04-30 10:23 45.18493 9.32336 33285 ft 433 kts 235°
2026-04-30 10:24 45.14718 9.25784 33299 ft 431 kts 235°
2026-04-30 10:24 45.10915 9.19223 33288 ft 430 kts 235°
2026-04-30 10:25 45.07123 9.12696 33289 ft 429 kts 235°
2026-04-30 10:25 45.03343 9.06182 33290 ft 428 kts 235°
2026-04-30 10:26 44.99572 8.99695 33288 ft 426 kts 236°
2026-04-30 10:26 44.95811 8.93251 33295 ft 424 kts 236°
2026-04-30 10:27 44.92063 8.86842 33293 ft 423 kts 236°
2026-04-30 10:27 44.88320 8.80457 33287 ft 422 kts 236°
2026-04-30 10:28 44.84575 8.74090 33250 ft 421 kts 235°
2026-04-30 10:28 44.80835 8.67744 33280 ft 421 kts 235°
2026-04-30 10:29 44.77099 8.61413 33285 ft 420 kts 235°
2026-04-30 10:29 44.73367 8.55100 33284 ft 420 kts 235°
2026-04-30 10:30 44.69638 8.48792 33294 ft 419 kts 235°
2026-04-30 10:30 44.65921 8.42536 33286 ft 419 kts 234°
2026-04-30 10:31 44.62179 8.36257 33293 ft 419 kts 234°
2026-04-30 10:31 44.58437 8.29989 33280 ft 419 kts 234°
2026-04-30 10:32 44.54690 8.23728 33287 ft 419 kts 234°
2026-04-30 10:32 44.50943 8.17468 33305 ft 419 kts 234°
2026-04-30 10:33 44.47190 8.11223 33299 ft 419 kts 234°
2026-04-30 10:33 44.43414 8.04945 33300 ft 424 kts 234°
2026-04-30 10:34 44.39622 7.98666 33379 ft 426 kts 234°
2026-04-30 10:34 44.37710 7.95503 33627 ft 426 kts 233°
2026-04-30 10:34 44.35797 7.92343 33908 ft 426 kts 233°
2026-04-30 10:35 44.33882 7.89181 34168 ft 425 kts 233°
2026-04-30 10:35 44.31974 7.86032 34437 ft 424 kts 233°
2026-04-30 10:35 44.30066 7.82893 34679 ft 423 kts 233°
2026-04-30 10:35 44.28162 7.79762 34869 ft 423 kts 233°
2026-04-30 10:36 44.26123 7.76797 35061 ft 426 kts 225°
2026-04-30 10:36 44.23906 7.74057 35241 ft 426 kts 225°
2026-04-30 10:36 44.19474 7.68578 35271 ft 425 kts 225°
2026-04-30 10:37 44.15048 7.63115 35268 ft 424 kts 228°
2026-04-30 10:37 44.11141 7.57071 35250 ft 419 kts 233°
2026-04-30 10:38 44.07319 7.50943 35252 ft 419 kts 233°
2026-04-30 10:38 44.03500 7.44831 35231 ft 419 kts 233°
2026-04-30 10:39 43.99677 7.38731 35238 ft 419 kts 232°
2026-04-30 10:39 43.95843 7.32642 35207 ft 419 kts 232°
2026-04-30 10:40 43.92010 7.26568 35208 ft 418 kts 232°
2026-04-30 10:40 43.88177 7.20503 35190 ft 418 kts 232°
2026-04-30 10:41 43.84344 7.14454 35182 ft 417 kts 232°
2026-04-30 10:41 43.80513 7.08421 35173 ft 417 kts 232°
2026-04-30 10:42 43.76708 7.02435 35177 ft 417 kts 232°
2026-04-30 10:42 43.72966 6.96340 35180 ft 413 kts 239°
2026-04-30 10:43 43.70423 6.89332 35183 ft 407 kts 251°
2026-04-30 10:43 43.68306 6.82083 35171 ft 407 kts 250°
2026-04-30 10:44 43.66166 6.74846 35175 ft 407 kts 250°
2026-04-30 10:44 43.64018 6.67606 35172 ft 407 kts 250°
2026-04-30 10:45 43.61889 6.60428 35172 ft 406 kts 250°
2026-04-30 10:45 43.59747 6.53227 35175 ft 405 kts 250°
2026-04-30 10:46 43.57601 6.46048 35175 ft 405 kts 250°
2026-04-30 10:46 43.55456 6.38873 35172 ft 405 kts 250°
2026-04-30 10:47 43.53308 6.31709 35171 ft 405 kts 249°
2026-04-30 10:47 43.51151 6.24540 35170 ft 405 kts 249°
2026-04-30 10:48 43.48990 6.17374 35166 ft 405 kts 249°
2026-04-30 10:48 43.46824 6.10217 35147 ft 405 kts 249°
2026-04-30 10:49 43.44657 6.03077 35158 ft 404 kts 249°
2026-04-30 10:49 43.42492 5.95960 35157 ft 403 kts 249°
2026-04-30 10:50 43.40326 5.88867 35146 ft 402 kts 249°
2026-04-30 10:50 43.38156 5.81779 35146 ft 402 kts 249°
2026-04-30 10:51 43.35987 5.74704 35140 ft 401 kts 249°
2026-04-30 10:51 43.33816 5.67638 35137 ft 402 kts 248°
2026-04-30 10:52 43.31649 5.60613 35128 ft 402 kts 248°
2026-04-30 10:52 43.29459 5.53542 35114 ft 402 kts 248°
2026-04-30 10:53 43.27275 5.46503 35141 ft 400 kts 249°
2026-04-30 10:53 43.25094 5.39492 35145 ft 398 kts 248°
2026-04-30 10:54 43.22912 5.32515 35144 ft 397 kts 248°
2026-04-30 10:54 43.20738 5.25548 35138 ft 397 kts 248°
2026-04-30 10:55 43.18561 5.18586 35135 ft 397 kts 248°
2026-04-30 10:55 43.16371 5.11637 35137 ft 397 kts 248°
2026-04-30 10:56 43.14184 5.04685 35140 ft 397 kts 248°
2026-04-30 10:56 43.11995 4.97737 35134 ft 397 kts 248°
2026-04-30 10:57 43.09796 4.90815 35156 ft 396 kts 248°
2026-04-30 10:57 43.07599 4.83924 35165 ft 394 kts 248°
2026-04-30 10:58 43.04994 4.77353 35159 ft 396 kts 234°
2026-04-30 10:58 43.01020 4.72093 35155 ft 399 kts 225°
2026-04-30 10:59 42.96880 4.67115 35148 ft 399 kts 225°
2026-04-30 10:59 42.92722 4.62108 35151 ft 399 kts 225°
2026-04-30 11:00 42.88556 4.57085 35131 ft 401 kts 225°
2026-04-30 11:00 42.85046 4.52859 35121 ft 402 kts 225°
2026-04-30 11:01 42.80871 4.47846 35116 ft 403 kts 225°
2026-04-30 11:01 42.76654 4.42788 35117 ft 404 kts 225°
2026-04-30 11:02 42.72428 4.37731 35119 ft 405 kts 225°
2026-04-30 11:02 42.68184 4.32667 35119 ft 405 kts 225°
2026-04-30 11:03 42.63939 4.27623 35125 ft 406 kts 225°
2026-04-30 11:04 42.57562 4.20048 35123 ft 406 kts 225°
2026-04-30 11:04 42.53313 4.14997 35112 ft 406 kts 225°
2026-04-30 11:05 42.49064 4.09968 35129 ft 405 kts 225°
2026-04-30 11:05 42.44823 4.04959 35137 ft 404 kts 225°
2026-04-30 11:06 42.40608 3.99989 35139 ft 404 kts 225°
2026-04-30 11:06 42.36375 3.95001 35131 ft 403 kts 225°
2026-04-30 11:07 42.32138 3.90034 35114 ft 403 kts 226°
2026-04-30 11:07 42.27908 3.85079 35127 ft 402 kts 226°
2026-04-30 11:08 42.24256 3.79521 35132 ft 393 kts 238°
2026-04-30 11:08 42.21098 3.73494 35127 ft 393 kts 238°
2026-04-30 11:09 42.17935 3.67484 35125 ft 393 kts 238°
2026-04-30 11:09 42.14768 3.61488 35121 ft 393 kts 238°
2026-04-30 11:10 42.11594 3.55504 35109 ft 392 kts 238°
2026-04-30 11:10 42.08438 3.49571 35117 ft 392 kts 238°
2026-04-30 11:11 42.05271 3.43609 35123 ft 391 kts 238°
2026-04-30 11:11 42.02109 3.37650 35121 ft 391 kts 238°
2026-04-30 11:12 41.98941 3.31708 35116 ft 391 kts 238°
2026-04-30 11:12 41.95769 3.25771 35115 ft 391 kts 238°
2026-04-30 11:13 41.92597 3.19851 35100 ft 390 kts 238°
2026-04-30 11:13 41.89451 3.13983 35114 ft 389 kts 238°
2026-04-30 11:14 41.86289 3.08110 35124 ft 388 kts 238°
2026-04-30 11:14 41.83125 3.02247 35117 ft 387 kts 238°
2026-04-30 11:15 41.79963 2.96389 35115 ft 387 kts 238°
2026-04-30 11:15 41.76802 2.90540 35111 ft 387 kts 238°
2026-04-30 11:16 41.73635 2.84699 35088 ft 387 kts 238°
2026-04-30 11:16 41.70464 2.78863 35125 ft 387 kts 238°
2026-04-30 11:17 41.67279 2.73050 35127 ft 387 kts 237°
2026-04-30 11:17 41.63979 2.67350 35122 ft 388 kts 236°
2026-04-30 11:18 41.60660 2.61727 35116 ft 387 kts 236°
2026-04-30 11:18 41.55653 2.53189 35105 ft 387 kts 236°
2026-04-30 11:19 41.52364 2.47558 35080 ft 387 kts 237°
2026-04-30 11:19 41.49055 2.41899 35098 ft 386 kts 237°
2026-04-30 11:20 41.45745 2.36255 35102 ft 386 kts 236°
2026-04-30 11:20 41.42431 2.30627 35107 ft 386 kts 236°
2026-04-30 11:21 41.39120 2.25011 34986 ft 383 kts 236°
2026-04-30 11:21 41.37478 2.22231 33658 ft 387 kts 236°
2026-04-30 11:21 41.35791 2.19365 31838 ft 399 kts 236°
2026-04-30 11:22 41.34056 2.16414 30067 ft 410 kts 235°
2026-04-30 11:22 41.32274 2.13391 28015 ft 419 kts 234°
2026-04-30 11:22 41.30450 2.10326 26103 ft 426 kts 233°
2026-04-30 11:22 41.28533 2.07287 24280 ft 432 kts 231°
2026-04-30 11:23 41.26517 2.04294 22523 ft 435 kts 227°
2026-04-30 11:23 41.24170 2.01884 21173 ft 432 kts 211°
2026-04-30 11:23 41.18386 2.00349 18730 ft 430 kts 176°
2026-04-30 11:24 41.15505 2.01396 17473 ft 431 kts 158°
2026-04-30 11:24 41.13008 2.03557 16271 ft 430 kts 140°
2026-04-30 11:24 41.11139 2.06614 15165 ft 427 kts 121°
2026-04-30 11:25 41.09917 2.14127 12964 ft 419 kts 84°
2026-04-30 11:25 41.10664 2.17811 11848 ft 412 kts 66°
2026-04-30 11:25 41.13883 2.23940 9697 ft 397 kts 52°
2026-04-30 11:26 41.17037 2.29257 9302 ft 337 kts 52°
2026-04-30 11:26 41.18438 2.31606 9166 ft 313 kts 52°
2026-04-30 11:26 41.19759 2.33811 8770 ft 300 kts 52°
2026-04-30 11:27 41.21046 2.35951 8225 ft 294 kts 52°
2026-04-30 11:27 41.22323 2.38052 7613 ft 291 kts 52°
2026-04-30 11:27 41.23592 2.40113 7048 ft 286 kts 52°
2026-04-30 11:27 41.24882 2.42086 6505 ft 281 kts 43°
2026-04-30 11:28 41.28411 2.43785 5585 ft 267 kts 357°
2026-04-30 11:28 41.30190 2.43565 5382 ft 249 kts 356°
2026-04-30 11:28 41.31870 2.43359 4980 ft 244 kts 357°
2026-04-30 11:29 41.33549 2.43157 4508 ft 241 kts 356°
2026-04-30 11:29 41.35194 2.42814 4117 ft 240 kts 341°
2026-04-30 11:29 41.37439 2.39829 3681 ft 231 kts 287°
2026-04-30 11:30 41.37848 2.35715 3340 ft 220 kts 276°
2026-04-30 11:30 41.38005 2.33754 3298 ft 205 kts 273°
2026-04-30 11:30 41.37857 2.31913 3207 ft 199 kts 252°
2026-04-30 11:31 41.37325 2.30214 3127 ft 200 kts 244°
2026-04-30 11:31 41.36753 2.28523 2907 ft 200 kts 245°
2026-04-30 11:31 41.36183 2.26842 2658 ft 199 kts 245°
2026-04-30 11:31 41.35612 2.25162 2403 ft 199 kts 245°
2026-04-30 11:32 41.35043 2.23487 2131 ft 198 kts 245°
2026-04-30 11:32 41.34486 2.21850 1880 ft 196 kts 245°
2026-04-30 11:32 41.33927 2.20209 1620 ft 194 kts 245°
2026-04-30 11:33 41.32873 2.17114 1147 ft 168 kts 244°
2026-04-30 11:33 41.32403 2.15737 922 ft 160 kts 245°
2026-04-30 11:33 41.31947 2.14403 716 ft 158 kts 244°